User: anonymous   Login
Location: Unspecified
(0.0000°N, 0.0000°E)
Time: 08:50:19
(UTC+02:00)
Language:

AO-40 - Orbit

View from above orbital plane
View from above orbital plane
View from above satellite
View from above satellite

Ground track
Ground track

The orbit data is extracted from the following two-line orbital elements,

1 26609U 00072B   16205.05141022 -.00000235  00000-0  00000+0 0  9991
2 26609   7.8293 292.4848 7976868   1.3985   0.0140  1.25587491 72206
Epoch (UTC): 23 July 2016 01:14:01
Eccentricity: 0.7976868
inclination: 7.8293°
perigee height: 963 km
apogee height: 58857 km
right ascension of ascending node: 292.4848°
argument of perigee: 1.3985°
revolutions per day: 1.25587491
mean anomaly at epoch: 0.0140°
orbit number at epoch: 7220

The dashed part of the orbit path shows where the satellite is in the earth's shadow,  

DLR